This demonstration page uses our WeatherBlox Daily Observations layout. Learn more.

41.55636, -103.73856

Hourly Observations for December 13, 2019

Temp ( °F °C ) Dew Point ( °F °C ) Humidity (%) Winds ( mph kmh ) Pressure ( in mb ) Visibility ( mi km ) Precip ( " mm )
12:58 am 00:58 Mostly Clear 41 5 26 -3.1 56 56 W 6 9 29.93 1014 10 16.0934 0 0
1:58 am 01:58 Mostly Cloudy 41 4.8 28 -2.1 61 61 WNW 12 19 29.93 1014 10 16.0934 0 0
2:58 am 02:58 Partly Cloudy 39 3.9 29 -1.8 67 67 W 9 15 29.91 1013 10 16.0934 0 0
3:58 am 03:58 Mostly Cloudy 40 4.5 30 -1.1 67 67 W 17 28 29.9 1013 10 16.0934 0 0
4:59 am 04:59 Mostly Cloudy 40 4.3 30 -1.2 68 68 WNW 20 31 29.92 1013 10 16.0934 0 0
5:58 am 05:58 Windy with Rain Showers Likely 42 5.4 31 -0.4 67 67 NW 21 33 29.91 1013 10 16.0934 0 0
6:58 am 06:58 Clear 36 2.2 30 -0.9 80 80 W 9 15 29.9 1013 10 16.0934 0 0
7:58 am 07:58 Partly Cloudy 31 -0.4 28 -2.4 87 87 W 6 9 29.92 1013 10 16.0934 0 0
8:58 am 08:58 Mostly Cloudy 31 -0.7 29 -1.9 92 92 NW 9 15 29.92 1013 10 16.0934 0 0
9:58 am 09:58 Mostly Cloudy 31 -0.3 29 -1.8 90 90 W 6 9 29.93 1014 10 16.0934 0 0
10:58 am 10:58 Mostly Cloudy 28 -2 27 -2.8 94 94 SW 3 6 29.91 1013 10 16.0934 0 0
11:58 am 11:58 Mostly Cloudy 33 0.5 31 -0.6 92 92 Calm 29.88 1012 10 16.0934 0 0
12:58 pm 12:58 Mostly Clear 30 -1.2 29 -1.6 97 97 SSW 6 9 29.91 1013 10 16.0934 0 0
1:58 pm 13:58 Cloudy 31 -0.5 27 -2.6 86 86 SW 8 13 29.91 1013 10 16.0934 0 0
2:58 pm 14:58 Mostly Cloudy 33 0.3 28 -2.2 84 84 WSW 10 17 29.89 1012 10 16.0934 0 0
3:59 pm 15:59 Cloudy 40 4.2 26 -3.4 58 58 WNW 24 39 29.88 1012 10 16.0934 0 0
4:58 pm 16:58 Mostly Cloudy 40 4.2 26 -3.5 58 58 NW 16 26 29.89 1012 10 16.0934 0 0
5:58 pm 17:58 Mostly Cloudy 41 5.1 24 -4.7 50 50 NW 29 46 29.88 1012 10 16.0934 0 0
6:59 pm 18:59 Mostly Cloudy with Light Rain 39 3.7 28 -2.1 66 66 NW 25 41 29.9 1013 10 16.0934 0 0
7:58 pm 19:58 Mostly Cloudy 40 4.5 26 -3.2 58 58 NNW 28 44 29.93 1013 10 16.0934 0 0
8:58 pm 20:58 Mostly Cloudy 41 5 27 -2.8 57 57 N 21 33 29.95 1014 10 16.0934 0 0
9:58 pm 21:58 Mostly Cloudy 38 3.3 26 -3.5 61 61 NW 13 20 29.99 1016 10 16.0934 0 0
10:58 pm 22:58 Mostly Cloudy 34 0.9 30 -1 87 87 W 12 19 30.03 1017 10 16.0934 0 0
11:58 pm 23:58 Mostly Cloudy 32 -0.2 29 -1.4 92 92 WSW 5 7 30.03 1017 10 16.0934 0 0

Powered by AerisWeather